Cancun, Mexico

11:07 PM on June 22, 2017 (GMT +0000)
Cancun International

Weather History for MMUN - November, 2012

Change the Weather History Date:

Friday, November 16, 2012

  Actual Average Record
Temperature  
Mean Temperature 73 °F -  
Max Temperature 82 °F 82 °F 89 °F (2002)
Min Temperature 64 °F 66 °F 59 °F (1999)
Cooling Degree Days 8    
Growing Degree Days 23 (Base 50)    
Moisture  
Dew Point 66 °F    
Average Humidity 84    
Maximum Humidity 94    
Minimum Humidity 61    
Precipitation  
Precipitation 0.00 in - - ()
Sea Level Pressure  
Sea Level Pressure 30.05 in    
Wind  
Wind Speed 4 mph ()    
Max Wind Speed 10 mph    
Max Gust Speed -    
Visibility 6.9 miles    
Events      
Averages and records for this station are not official NWS values.
T = Trace of Precipitation, MM = Missing Value Source: Averaged Metar Reports

Daily Weather History Graph

Daily Weather History Graph

Search for Another Location

Airport or City:

Trip Planner

Search our weather history database for the weather conditions in past years. The results will help you decide how hot, cold, wet, or windy it might be!

Date:

Astronomy

Nov. 16, 2012 Rise Set
Actual Time 5:58 AM CST 5:05 PM CST
Civil Twilight 5:35 AM CST 5:29 PM CST
Nautical Twilight 5:08 AM CST 5:56 PM CST
Astronomical Twilight 4:41 AM CST 6:22 PM CST
Moon 8:46 AM CST (11/16) 8:09 PM CST (11/16)
Length of Visible Light 11h 53m
Length of Day
11h 07m
Waxing Crescent, 12% of the Moon is Illuminated
Nov 16
Waxing Crescent
Nov 20
First Quarter
Nov 28
Full
Dec 6
Last Quarter
Dec 13
New

Hourly Weather History & Observations

Time (CST) Temp. Heat Index Dew Point Humidity Pressure Visibility Wind Dir Wind Speed Gust Speed Precip Events Conditions
12:11 AM 68.0 °F - 66.2 °F 94% 30.05 in 7.0 mi WNW 4.6 mph - N/A   Mostly Cloudy
12:42 AM 68.0 °F - 66.2 °F 94% 30.04 in 7.0 mi NW 4.6 mph - N/A   Scattered Clouds
1:40 AM 66.2 °F - 64.4 °F 94% 30.04 in 7.0 mi NW 5.8 mph - N/A   Partly Cloudy
2:41 AM 68.0 °F - 66.2 °F 94% 30.03 in 7.0 mi WNW 2.3 mph - N/A   Scattered Clouds
3:51 AM 68.0 °F - 64.4 °F 88% 30.02 in 7.0 mi WNW 2.3 mph - N/A   Scattered Clouds
4:43 AM 66.2 °F - 64.4 °F 94% 30.04 in 7.0 mi Calm Calm - N/A   Scattered Clouds
5:50 AM 69.8 °F - 66.2 °F 88% 30.04 in 7.0 mi East 2.3 mph - N/A   Scattered Clouds
6:40 AM 69.8 °F - 68.0 °F 94% 30.06 in 7.0 mi NE 2.3 mph - N/A   Scattered Clouds
7:48 AM 73.4 °F - 69.8 °F 88% 30.07 in 7.0 mi NW 3.5 mph - N/A   Scattered Clouds
8:44 AM 75.2 °F - 69.8 °F 83% 30.08 in 7.0 mi NE 4.6 mph - N/A   Scattered Clouds
9:44 AM 78.8 °F - 66.2 °F 65% 30.09 in 7.0 mi NE 6.9 mph - N/A   Partly Cloudy
10:45 AM 80.6 °F 82.7 °F 66.2 °F 61% 30.07 in 7.0 mi NNE 6.9 mph - N/A   Scattered Clouds
11:46 AM 82.4 °F 85.4 °F 68.0 °F 62% 30.06 in 7.0 mi NNE 10.4 mph - N/A   Scattered Clouds
12:45 PM 80.6 °F 83.2 °F 68.0 °F 65% 30.02 in 7.0 mi East 8.1 mph - N/A   Scattered Clouds
1:45 PM 78.8 °F - 66.2 °F 65% 30.02 in 6.0 mi NE 3.5 mph - N/A   Mostly Cloudy
2:44 PM 73.4 °F - 68.0 °F 83% 30.01 in 6.0 mi SW 4.6 mph - N/A   Mostly Cloudy
3:50 PM 73.4 °F - 68.0 °F 83% 30.01 in 6.0 mi NW 3.5 mph - N/A   Mostly Cloudy
4:45 PM 73.4 °F - 69.8 °F 88% 30.02 in 7.0 mi NW 4.6 mph - N/A   Mostly Cloudy
5:51 PM 73.4 °F - 66.2 °F 78% 30.06 in 7.0 mi NNW 5.8 mph - N/A   Mostly Cloudy
6:40 PM 71.6 °F - 66.2 °F 83% 30.05 in 7.0 mi NNW 4.6 mph - N/A   Scattered Clouds
7:44 PM 69.8 °F - 66.2 °F 88% 30.06 in 7.0 mi NW 3.5 mph - N/A   Scattered Clouds
8:44 PM 68.0 °F - 66.2 °F 94% 30.07 in 7.0 mi NW 4.6 mph - N/A   Partly Cloudy
9:54 PM 66.2 °F - 64.4 °F 94% 30.07 in 7.0 mi NW 3.5 mph - N/A   Partly Cloudy
10:47 PM 64.4 °F - 62.6 °F 94% 30.06 in 7.0 mi NW 4.6 mph - N/A   Clear
11:42 PM 64.4 °F - 62.6 °F 94% 30.05 in 7.0 mi NW 3.5 mph - N/A   Clear